This demonstration page uses our WeatherBlox Daily Observations layout. Learn more.

Left ArrowRight Arrow

41.86663, -103.66717

Hourly Observations for October 3, 2022

Temp ( °F °C ) Dew Point ( °F °C ) Humidity (%) Winds ( mph kmh ) Pressure ( in mb ) Visibility ( mi km ) Precip ( " mm )
12:53 am 00:53 Clear 49 9.4 45 7.2 86 86 N 5 7 30.04 1017 10 16 0.00 0.00
1:53 am 01:53 Clear 48 8.9 44 6.7 86 86 E 3 6 30.05 1018 10 16 0.00 0.00
2:53 am 02:53 Clear 47 8.3 43 6.1 86 86 NNE 3 6 30.04 1017 10 16 0.00 0.00
3:53 am 03:53 Partly Cloudy 47 8.3 44 6.7 90 90 Calm 30.04 1017 10 16 0.00 0.00
4:53 am 04:53 Mostly Cloudy 49 9.4 45 7.2 86 86 WNW 5 7 30.04 1017 10 16 0.00 0.00
5:53 am 05:53 Mostly Cloudy 50 10 46 7.8 86 86 WNW 6 9 30.05 1018 10 16 0.00 0.00
6:53 am 06:53 Mostly Cloudy 50 10 47 8.3 89 89 WNW 9 15 30.06 1018 10 16 0.00 0.00
7:53 am 07:53 Mostly Cloudy 51 10.6 47 8.3 86 86 WNW 9 15 30.09 1019 10 16 0.00 0.00
8:53 am 08:53 Sunny 54 12.2 48 8.9 80 80 W 8 13 30.10 1019 10 16 0.00 0.00
9:53 am 09:53 Sunny 57 13.9 48 8.9 72 72 W 7 11 30.10 1019 10 16 0.00 0.00
10:53 am 10:53 Sunny 66 18.9 51 10.6 59 59 VRB 6 9 30.09 1019 10 16 0.00 0.00
11:53 am 11:53 Sunny 71 21.7 47 8.3 42 42 W 6 9 30.06 1018 10 16 0.00 0.00
12:53 pm 12:53 Mostly Cloudy 72 22.2 46 7.8 40 40 NW 6 9 30.06 1018 10 16 0.00 0.00
1:53 pm 13:53 Sunny 75 23.9 46 7.8 36 36 VRB 5 7 30.03 1017 10 16 0.00 0.00
2:53 pm 14:53 Sunny 74 23.3 45 7.2 36 36 Calm 30.01 1016 10 16 0.00 0.00
3:53 pm 15:53 Sunny 74 23.3 43 6.1 33 33 SSW 6 9 30.02 1017 10 16 0.00 0.00
4:53 pm 16:53 Cloudy with Light Rain 69 20.6 46 7.8 44 44 WNW 20 31 30.05 1018 7 11 0.01 0.13
5:09 pm 17:09 Cloudy with Light Rain 62 16.7 52 11.1 70 70 N 18 30 29.98 1015 7 11 0.01 0.13
5:46 pm 17:46 Sunny with Nearby Thunderstorms 60 15.6 49 9.4 67 67 N 9 15 30.00 1016 10 16 0.01 0.13
5:53 pm 17:53 Sunny with Nearby Thunderstorms 60 15.6 49 9.4 67 67 N 9 15 30.08 1019 10 16 0.01 0.13
6:04 pm 18:04 Partly Cloudy 60 15.6 49 9.4 67 67 NNE 7 11 30.00 1016 10 16 0.00 0.00
6:53 pm 18:53 Mostly Cloudy 59 15 50 10 72 72 SSE 9 15 30.11 1020 10 16 0.00 0.00
7:53 pm 19:53 Partly Cloudy 56 13.3 49 9.4 77 77 Calm 30.12 1020 10 16 0.00 0.00
8:53 pm 20:53 Clear 55 12.8 49 9.4 80 80 Calm 30.12 1020 10 16 0.00 0.00
9:53 pm 21:53 Mostly Clear 52 11.1 48 8.9 86 86 SSW 3 6 30.13 1020 10 16 0.00 0.00
10:53 pm 22:53 Partly Cloudy 53 11.7 49 9.4 86 86 N 3 6 30.10 1019 10 16 0.00 0.00
11:53 pm 23:53 Clear 50 10 46 7.8 86 86 SSE 3 6 30.09 1019 10 16 0.00 0.00

Powered by AerisWeather